TAP1142 LPPT-LEIB

Flight info

Callsign TAP1142
Flight time 1h 25m
Altitude 38000
Route ORVED DCT UREDI DCT NVS/N0429F370 DCT NANDO DCT FENXE/N0431F380 T257 LASPO Z224 VARUT
Aircraft A320/M-SDE3FGHIJ1RWXYZ/LB1

Departure

Time 2026-05-08 01:21
Airport Lisbon Humberto Delgado Airport (LPPT)

Arrival

Time 2026-05-08 02:47
Airport Ibiza Airport (LEIB)
Time Latitude Longitude Altitude Speed Heading
2026-05-08 01:05 38.77161 -9.13124 337 ft 0 kts 79°
2026-05-08 01:08 38.77160 -9.13129 332 ft 3 kts 79°
2026-05-08 01:08 38.77156 -9.13163 333 ft 4 kts 87°
2026-05-08 01:08 38.77157 -9.13197 334 ft 4 kts 112°
2026-05-08 01:09 38.77170 -9.13217 334 ft 2 kts 167°
2026-05-08 01:09 38.77171 -9.13217 334 ft 0 kts 168°
2026-05-08 01:13 38.77165 -9.13216 333 ft 4 kts 168°
2026-05-08 01:13 38.77131 -9.13207 335 ft 5 kts 168°
2026-05-08 01:13 38.77099 -9.13198 336 ft 4 kts 168°
2026-05-08 01:14 38.77075 -9.13191 338 ft 3 kts 168°
2026-05-08 01:14 38.77023 -9.13178 338 ft 12 kts 171°
2026-05-08 01:14 38.76936 -9.13156 336 ft 15 kts 168°
2026-05-08 01:14 38.76828 -9.13127 339 ft 14 kts 170°
2026-05-08 01:15 38.76777 -9.13192 339 ft 10 kts 256°
2026-05-08 01:15 38.76764 -9.13274 341 ft 9 kts 259°
2026-05-08 01:15 38.76747 -9.13362 343 ft 10 kts 247°
2026-05-08 01:15 38.76707 -9.13418 347 ft 8 kts 217°
2026-05-08 01:16 38.76654 -9.13473 348 ft 9 kts 236°
2026-05-08 01:16 38.76644 -9.13553 350 ft 11 kts 259°
2026-05-08 01:16 38.76627 -9.13659 351 ft 14 kts 256°
2026-05-08 01:16 38.76604 -9.13791 346 ft 16 kts 257°
2026-05-08 01:17 38.76579 -9.13948 348 ft 20 kts 259°
2026-05-08 01:17 38.76506 -9.14096 350 ft 20 kts 246°
2026-05-08 01:17 38.76521 -9.14251 337 ft 2 kts 294°
2026-05-08 01:18 38.76522 -9.14255 337 ft 3 kts 294°
2026-05-08 01:18 38.76541 -9.14313 335 ft 0 kts 292°
2026-05-08 01:20 38.76542 -9.14316 335 ft 2 kts 292°
2026-05-08 01:20 38.76571 -9.14386 330 ft 13 kts 315°
2026-05-08 01:20 38.76649 -9.14385 334 ft 10 kts 23°
2026-05-08 01:20 38.76658 -9.14380 336 ft 1 kts 23°
2026-05-08 01:21 38.76881 -9.14260 349 ft 72 kts 22°
2026-05-08 01:21 38.77539 -9.13910 367 ft 130 kts 22°
2026-05-08 01:21 38.78501 -9.13380 565 ft 158 kts 26°
2026-05-08 01:21 38.79438 -9.12696 1297 ft 154 kts 27°
2026-05-08 01:22 38.80435 -9.12129 1851 ft 164 kts 20°
2026-05-08 01:22 38.81561 -9.11536 2178 ft 186 kts 25°
2026-05-08 01:22 38.82773 -9.10700 2465 ft 210 kts 28°
2026-05-08 01:22 38.84111 -9.09711 2876 ft 235 kts 29°
2026-05-08 01:23 38.85590 -9.08593 3362 ft 257 kts 30°
2026-05-08 01:23 38.87155 -9.07394 4152 ft 267 kts 30°
2026-05-08 01:23 38.88703 -9.06020 5014 ft 274 kts 40°
2026-05-08 01:23 38.89986 -9.04178 5854 ft 281 kts 56°
2026-05-08 01:24 38.90922 -9.01954 6702 ft 286 kts 66°
2026-05-08 01:24 38.91779 -8.99631 7573 ft 289 kts 67°
2026-05-08 01:24 38.92650 -8.97284 8469 ft 293 kts 68°
2026-05-08 01:24 38.93535 -8.94908 9359 ft 296 kts 69°
2026-05-08 01:25 38.94430 -8.92505 10024 ft 300 kts 69°
2026-05-08 01:25 38.95359 -8.89999 10376 ft 322 kts 69°
2026-05-08 01:25 38.96350 -8.87319 10807 ft 339 kts 69°
2026-05-08 01:25 38.97376 -8.84565 11531 ft 344 kts 69°
2026-05-08 01:26 38.98421 -8.81772 12313 ft 349 kts 70°
2026-05-08 01:26 38.99478 -8.78947 13087 ft 353 kts 70°
2026-05-08 01:26 39.00547 -8.76087 13825 ft 357 kts 70°
2026-05-08 01:26 39.01625 -8.73191 14464 ft 361 kts 70°
2026-05-08 01:27 39.02711 -8.70263 15047 ft 366 kts 70°
2026-05-08 01:27 39.03808 -8.67291 15701 ft 370 kts 70°
2026-05-08 01:27 39.04915 -8.64284 16322 ft 374 kts 70°
2026-05-08 01:27 39.06039 -8.61235 16919 ft 380 kts 70°
2026-05-08 01:28 39.07179 -8.58143 17505 ft 385 kts 70°
2026-05-08 01:28 39.08334 -8.55008 18107 ft 390 kts 70°
2026-05-08 01:28 39.09503 -8.51830 18622 ft 395 kts 70°
2026-05-08 01:28 39.10686 -8.48618 19151 ft 399 kts 70°
2026-05-08 01:29 39.11879 -8.45377 19680 ft 403 kts 70°
2026-05-08 01:29 39.13085 -8.42100 20216 ft 406 kts 70°
2026-05-08 01:29 39.14300 -8.38798 20737 ft 410 kts 70°
2026-05-08 01:29 39.15524 -8.35463 21255 ft 414 kts 70°
2026-05-08 01:30 39.16755 -8.32097 21738 ft 417 kts 70°
2026-05-08 01:30 39.17992 -8.28701 22235 ft 420 kts 70°
2026-05-08 01:30 39.19240 -8.25278 22736 ft 424 kts 70°
2026-05-08 01:30 39.20497 -8.21828 23235 ft 427 kts 70°
2026-05-08 01:31 39.21764 -8.18352 23666 ft 430 kts 70°
2026-05-08 01:31 39.23042 -8.14847 24067 ft 433 kts 70°
2026-05-08 01:31 39.24326 -8.11320 24482 ft 436 kts 70°
2026-05-08 01:31 39.25615 -8.07770 24884 ft 438 kts 70°
2026-05-08 01:32 39.26893 -8.04247 25280 ft 441 kts 70°
2026-05-08 01:32 39.28174 -8.00644 25673 ft 442 kts 71°
2026-05-08 01:32 39.29354 -7.96976 26061 ft 443 kts 74°
2026-05-08 01:32 39.30443 -7.93250 26445 ft 444 kts 75°
2026-05-08 01:33 39.31482 -7.89486 26823 ft 446 kts 76°
2026-05-08 01:33 39.32511 -7.85697 27226 ft 448 kts 76°
2026-05-08 01:33 39.33553 -7.81895 27598 ft 450 kts 75°
2026-05-08 01:33 39.34620 -7.78077 27971 ft 453 kts 75°
2026-05-08 01:34 39.35709 -7.74245 28334 ft 456 kts 75°
2026-05-08 01:34 39.36814 -7.70394 28697 ft 458 kts 75°
2026-05-08 01:34 39.37930 -7.66534 29042 ft 461 kts 74°
2026-05-08 01:34 39.39267 -7.62734 29383 ft 467 kts 68°
2026-05-08 01:35 39.40732 -7.58971 29690 ft 470 kts 68°
2026-05-08 01:35 39.42201 -7.55186 30016 ft 472 kts 68°
2026-05-08 01:35 39.43672 -7.51379 30281 ft 474 kts 68°
2026-05-08 01:35 39.45144 -7.47548 30539 ft 477 kts 68°
2026-05-08 01:36 39.46621 -7.43700 30796 ft 479 kts 68°
2026-05-08 01:36 39.48103 -7.39834 31048 ft 481 kts 68°
2026-05-08 01:36 39.49592 -7.35944 31281 ft 483 kts 68°
2026-05-08 01:36 39.51086 -7.32039 31580 ft 484 kts 68°
2026-05-08 01:37 39.52579 -7.28138 31927 ft 484 kts 68°
2026-05-08 01:37 39.54076 -7.24227 32274 ft 484 kts 68°
2026-05-08 01:37 39.55564 -7.20326 32554 ft 484 kts 68°
2026-05-08 01:37 39.57054 -7.16399 32806 ft 487 kts 68°
2026-05-08 01:38 39.58547 -7.12456 33074 ft 488 kts 68°
2026-05-08 01:38 39.60043 -7.08508 33410 ft 488 kts 68°
2026-05-08 01:38 39.61542 -7.04557 33747 ft 488 kts 68°
2026-05-08 01:38 39.63036 -7.00614 34050 ft 488 kts 68°
2026-05-08 01:39 39.64027 -6.97997 34246 ft 488 kts 68°
2026-05-08 01:39 39.65524 -6.94036 34532 ft 488 kts 68°
2026-05-08 01:39 39.67012 -6.90084 34820 ft 487 kts 68°
2026-05-08 01:39 39.68499 -6.86135 35100 ft 487 kts 68°
2026-05-08 01:40 39.69985 -6.82185 35325 ft 488 kts 68°
2026-05-08 01:40 39.71476 -6.78218 35503 ft 489 kts 68°
2026-05-08 01:40 39.72966 -6.74240 35738 ft 490 kts 68°
2026-05-08 01:40 39.74456 -6.70261 35988 ft 490 kts 68°
2026-05-08 01:41 39.75946 -6.66283 36244 ft 489 kts 68°
2026-05-08 01:41 39.77434 -6.62309 36491 ft 489 kts 69°
2026-05-08 01:41 39.78916 -6.58341 36734 ft 488 kts 69°
2026-05-08 01:41 39.80399 -6.54364 36982 ft 488 kts 69°
2026-05-08 01:42 39.81876 -6.50392 37223 ft 488 kts 69°
2026-05-08 01:42 39.83348 -6.46422 37430 ft 487 kts 69°
2026-05-08 01:42 39.84821 -6.42447 37589 ft 489 kts 68°
2026-05-08 01:42 39.86197 -6.38413 37785 ft 485 kts 76°
2026-05-08 01:43 39.87245 -6.34256 37887 ft 484 kts 77°
2026-05-08 01:43 39.89305 -6.25924 37891 ft 483 kts 77°
2026-05-08 01:44 39.91360 -6.17597 37890 ft 483 kts 77°
2026-05-08 01:44 39.93404 -6.09265 37892 ft 483 kts 77°
2026-05-08 01:45 39.95449 -6.00905 37897 ft 485 kts 77°
2026-05-08 01:45 39.97491 -5.92517 37897 ft 486 kts 77°
2026-05-08 01:46 39.99534 -5.84120 37899 ft 486 kts 77°
2026-05-08 01:46 40.01572 -5.75727 37904 ft 486 kts 77°
2026-05-08 01:47 40.03599 -5.67316 37868 ft 486 kts 76°
2026-05-08 01:47 40.05609 -5.58955 37887 ft 486 kts 76°
2026-05-08 01:48 40.08639 -5.46316 37911 ft 486 kts 77°
2026-05-08 01:48 40.10652 -5.37880 37915 ft 486 kts 77°
2026-05-08 01:49 40.12656 -5.29442 37900 ft 486 kts 76°
2026-05-08 01:49 40.14654 -5.20996 37926 ft 487 kts 76°
2026-05-08 01:50 40.16648 -5.12542 37934 ft 487 kts 76°
2026-05-08 01:50 40.18637 -5.04093 37934 ft 487 kts 76°
2026-05-08 01:51 40.20620 -4.95630 37942 ft 487 kts 77°
2026-05-08 01:51 40.22590 -4.87160 37916 ft 487 kts 76°
2026-05-08 01:52 40.24556 -4.78680 37926 ft 487 kts 76°
2026-05-08 01:52 40.26521 -4.70192 37940 ft 487 kts 76°
2026-05-08 01:53 40.28483 -4.61701 37945 ft 487 kts 76°
2026-05-08 01:53 40.30437 -4.53201 37930 ft 487 kts 76°
2026-05-08 01:54 40.32382 -4.44690 37935 ft 488 kts 76°
2026-05-08 01:54 40.34324 -4.36166 37946 ft 488 kts 76°
2026-05-08 01:55 40.35931 -4.27570 37953 ft 483 kts 88°
2026-05-08 01:55 40.35775 -4.18898 37957 ft 471 kts 105°
2026-05-08 01:56 40.34361 -4.10562 37961 ft 468 kts 109°
2026-05-08 01:56 40.32915 -4.02297 37964 ft 469 kts 109°
2026-05-08 01:57 40.31456 -3.93969 37957 ft 469 kts 109°
2026-05-08 01:57 40.29994 -3.85645 37969 ft 469 kts 109°
2026-05-08 01:58 40.28516 -3.77326 37958 ft 469 kts 109°
2026-05-08 01:58 40.27034 -3.69009 37960 ft 471 kts 109°
2026-05-08 01:59 40.25541 -3.60654 37959 ft 472 kts 109°
2026-05-08 01:59 40.24043 -3.52290 37961 ft 472 kts 109°
2026-05-08 02:00 40.22531 -3.43924 37968 ft 472 kts 109°
2026-05-08 02:00 40.21013 -3.35564 37952 ft 474 kts 109°
2026-05-08 02:01 40.19480 -3.27171 37955 ft 475 kts 109°
2026-05-08 02:01 40.17946 -3.18760 37969 ft 475 kts 109°
2026-05-08 02:02 40.16405 -3.10346 37973 ft 476 kts 109°
2026-05-08 02:02 40.14854 -3.01946 37949 ft 476 kts 109°
2026-05-08 02:03 40.13291 -2.93518 37960 ft 478 kts 109°
2026-05-08 02:03 40.11722 -2.85068 37973 ft 479 kts 109°
2026-05-08 02:04 40.10139 -2.76613 37974 ft 479 kts 109°
2026-05-08 02:04 40.08551 -2.68153 37986 ft 480 kts 109°
2026-05-08 02:05 40.06952 -2.59686 37971 ft 481 kts 109°
2026-05-08 02:05 40.05346 -2.51205 37976 ft 482 kts 109°
2026-05-08 02:06 40.03739 -2.42765 37992 ft 483 kts 109°
2026-05-08 02:06 40.02118 -2.34259 37997 ft 483 kts 109°
2026-05-08 02:07 40.00491 -2.25752 37978 ft 484 kts 109°
2026-05-08 02:07 39.98647 -2.17348 37984 ft 478 kts 118°
2026-05-08 02:08 39.95620 -2.09739 37995 ft 472 kts 125°
2026-05-08 02:08 39.92445 -2.02253 38003 ft 473 kts 125°
2026-05-08 02:09 39.89263 -1.94757 38009 ft 473 kts 125°
2026-05-08 02:09 39.86079 -1.87259 37994 ft 474 kts 125°
2026-05-08 02:10 39.82885 -1.79747 38006 ft 475 kts 125°
2026-05-08 02:10 39.79670 -1.72230 38006 ft 476 kts 125°
2026-05-08 02:11 39.76444 -1.64719 38005 ft 476 kts 126°
2026-05-08 02:11 39.73216 -1.57216 38015 ft 476 kts 126°
2026-05-08 02:12 39.69988 -1.49717 38004 ft 476 kts 125°
2026-05-08 02:12 39.66756 -1.42222 37990 ft 477 kts 126°
2026-05-08 02:13 39.63508 -1.34718 37983 ft 477 kts 126°
2026-05-08 02:13 39.60249 -1.27217 37983 ft 477 kts 126°
2026-05-08 02:14 39.56976 -1.19726 37959 ft 478 kts 126°
2026-05-08 02:14 39.53711 -1.12232 37983 ft 478 kts 126°
2026-05-08 02:15 39.50441 -1.04729 37978 ft 479 kts 126°
2026-05-08 02:15 39.47154 -0.97225 37990 ft 479 kts 126°
2026-05-08 02:16 39.43851 -0.89737 38000 ft 480 kts 126°
2026-05-08 02:16 39.40554 -0.82230 37994 ft 480 kts 126°
2026-05-08 02:17 39.37253 -0.74725 37978 ft 480 kts 126°
2026-05-08 02:17 39.33930 -0.67223 37946 ft 481 kts 126°
2026-05-08 02:18 39.30619 -0.59769 37958 ft 482 kts 126°
2026-05-08 02:18 39.27724 -0.51923 37973 ft 493 kts 110°
2026-05-08 02:19 39.25951 -0.43366 37975 ft 494 kts 109°
2026-05-08 02:19 39.24172 -0.34808 37978 ft 494 kts 110°
2026-05-08 02:20 39.22376 -0.26268 37984 ft 494 kts 110°
2026-05-08 02:20 39.20569 -0.17721 37990 ft 494 kts 110°
2026-05-08 02:21 39.18760 -0.09179 37995 ft 494 kts 110°
2026-05-08 02:21 39.16943 -0.00643 37995 ft 494 kts 110°
2026-05-08 02:22 39.15130 0.07901 37980 ft 495 kts 110°
2026-05-08 02:22 39.13302 0.16455 37972 ft 496 kts 110°
2026-05-08 02:23 39.11465 0.25013 37958 ft 496 kts 110°
2026-05-08 02:23 39.09622 0.33568 37975 ft 496 kts 110°
2026-05-08 02:24 39.07775 0.42117 37976 ft 496 kts 110°
2026-05-08 02:24 39.05934 0.50678 37972 ft 497 kts 110°
2026-05-08 02:25 39.04098 0.59253 37977 ft 497 kts 110°
2026-05-08 02:25 39.02270 0.67774 37981 ft 498 kts 110°
2026-05-08 02:26 39.00430 0.76350 37981 ft 497 kts 109°
2026-05-08 02:26 38.99810 0.83785 37974 ft 505 kts 91°
2026-05-08 02:27 38.99846 0.94291 37977 ft 506 kts 91°
2026-05-08 02:27 38.99874 0.98819 37736 ft 508 kts 91°
2026-05-08 02:27 38.99890 1.01912 36927 ft 516 kts 91°
2026-05-08 02:28 38.99906 1.06573 35806 ft 525 kts 91°
2026-05-08 02:28 38.99916 1.11285 35009 ft 527 kts 91°
2026-05-08 02:28 38.99931 1.15995 34332 ft 526 kts 89°
2026-05-08 02:28 39.00390 1.20644 33708 ft 524 kts 77°
2026-05-08 02:29 39.01141 1.25145 33078 ft 520 kts 77°
2026-05-08 02:29 39.01905 1.29655 32512 ft 514 kts 77°
2026-05-08 02:29 39.02664 1.34098 31628 ft 504 kts 77°
2026-05-08 02:29 39.03413 1.38467 30826 ft 494 kts 77°
2026-05-08 02:30 39.04129 1.42684 30634 ft 470 kts 77°
2026-05-08 02:30 39.04795 1.46689 30503 ft 446 kts 78°
2026-05-08 02:30 39.05389 1.50549 30020 ft 436 kts 79°
2026-05-08 02:30 39.05930 1.54353 29324 ft 429 kts 79°
2026-05-08 02:31 39.06444 1.58136 28652 ft 431 kts 79°
2026-05-08 02:31 39.07044 1.61914 27985 ft 431 kts 69°
2026-05-08 02:31 39.08323 1.65374 27343 ft 428 kts 57°
2026-05-08 02:31 39.09777 1.68727 26718 ft 430 kts 58°
2026-05-08 02:32 39.11188 1.72126 26119 ft 431 kts 58°
2026-05-08 02:32 39.12587 1.75544 25508 ft 432 kts 59°
2026-05-08 02:32 39.13984 1.78969 24908 ft 432 kts 59°
2026-05-08 02:32 39.15381 1.82392 24331 ft 431 kts 59°
2026-05-08 02:33 39.16775 1.85803 23764 ft 431 kts 59°
2026-05-08 02:33 39.18170 1.89217 23138 ft 430 kts 59°
2026-05-08 02:33 39.19563 1.92626 22467 ft 430 kts 59°
2026-05-08 02:33 39.20945 1.96038 21819 ft 429 kts 59°
2026-05-08 02:34 39.22327 1.99446 21183 ft 429 kts 59°
2026-05-08 02:34 39.23568 2.02885 20563 ft 431 kts 70°
2026-05-08 02:34 39.24061 2.06743 19948 ft 432 kts 90°
2026-05-08 02:34 39.23641 2.10476 19352 ft 420 kts 110°
2026-05-08 02:35 39.22380 2.13768 18770 ft 401 kts 130°
2026-05-08 02:35 39.20464 2.16223 18183 ft 379 kts 151°
2026-05-08 02:35 39.18153 2.17606 17515 ft 357 kts 172°
2026-05-08 02:35 39.15766 2.17808 16870 ft 335 kts 194°
2026-05-08 02:36 39.13601 2.16955 16236 ft 319 kts 212°
2026-05-08 02:36 39.11847 2.15316 15618 ft 307 kts 230°
2026-05-08 02:36 39.10619 2.13118 14882 ft 302 kts 246°
2026-05-08 02:36 39.09988 2.10554 14122 ft 301 kts 261°
2026-05-08 02:37 39.09607 2.07910 13325 ft 302 kts 261°
2026-05-08 02:37 39.09219 2.05251 12494 ft 302 kts 261°
2026-05-08 02:37 39.08828 2.02592 11676 ft 303 kts 260°
2026-05-08 02:37 39.08430 1.99932 10886 ft 303 kts 261°
2026-05-08 02:38 39.08032 1.97274 10110 ft 302 kts 261°
2026-05-08 02:38 39.07633 1.94622 9355 ft 300 kts 261°
2026-05-08 02:38 39.07244 1.92033 8911 ft 288 kts 262°
2026-05-08 02:38 39.06872 1.89566 8551 ft 275 kts 261°
2026-05-08 02:39 39.06511 1.87165 8207 ft 272 kts 260°
2026-05-08 02:39 39.06153 1.84781 7857 ft 270 kts 260°
2026-05-08 02:39 39.05754 1.82429 7510 ft 268 kts 252°
2026-05-08 02:39 39.04990 1.80279 7153 ft 264 kts 243°
2026-05-08 02:40 39.04119 1.78236 6806 ft 255 kts 242°
2026-05-08 02:40 39.03295 1.76263 6472 ft 247 kts 242°
2026-05-08 02:40 39.02506 1.74334 6156 ft 239 kts 242°
2026-05-08 02:40 39.01750 1.72481 5856 ft 231 kts 242°
2026-05-08 02:41 39.01013 1.70680 5553 ft 224 kts 242°
2026-05-08 02:41 39.00295 1.68926 5255 ft 219 kts 242°
2026-05-08 02:41 38.99594 1.67215 4990 ft 213 kts 242°
2026-05-08 02:41 38.98910 1.65544 4677 ft 209 kts 243°
2026-05-08 02:42 38.98236 1.63901 4369 ft 207 kts 243°
2026-05-08 02:42 38.97571 1.62280 4111 ft 203 kts 243°
2026-05-08 02:42 38.96918 1.60689 3834 ft 200 kts 243°
2026-05-08 02:42 38.96273 1.59119 3563 ft 198 kts 243°
2026-05-08 02:43 38.95638 1.57573 3304 ft 194 kts 243°
2026-05-08 02:43 38.95011 1.56047 3063 ft 191 kts 243°
2026-05-08 02:43 38.94408 1.54582 3000 ft 179 kts 243°
2026-05-08 02:43 38.93847 1.53221 3008 ft 169 kts 243°
2026-05-08 02:44 38.93311 1.51915 2999 ft 162 kts 243°
2026-05-08 02:44 38.92808 1.50669 2939 ft 155 kts 244°
2026-05-08 02:44 38.92318 1.49453 2754 ft 152 kts 244°
2026-05-08 02:44 38.91831 1.48254 2473 ft 151 kts 245°
2026-05-08 02:45 38.91355 1.47051 2141 ft 151 kts 243°
2026-05-08 02:45 38.90842 1.45880 1854 ft 150 kts 240°
2026-05-08 02:45 38.90334 1.44715 1546 ft 149 kts 246°
2026-05-08 02:45 38.89892 1.43511 1224 ft 149 kts 244°
2026-05-08 02:46 38.89365 1.42364 872 ft 150 kts 243°
2026-05-08 02:46 38.88875 1.41171 529 ft 151 kts 244°
2026-05-08 02:46 38.88390 1.39992 258 ft 146 kts 243°
2026-05-08 02:46 38.87917 1.38851 88 ft 146 kts 243°
2026-05-08 02:47 38.87464 1.37746 13 ft 130 kts 242°
2026-05-08 02:47 38.87105 1.36878 12 ft 86 kts 242°
2026-05-08 02:47 38.86897 1.36372 5 ft 35 kts 242°
2026-05-08 02:47 38.86928 1.36252 6 ft 9 kts 332°
2026-05-08 02:48 38.86930 1.36250 6 ft 0 kts 332°
2026-05-08 02:49 38.86937 1.36246 7 ft 4 kts 332°
2026-05-08 02:49 38.86974 1.36221 8 ft 7 kts 332°
2026-05-08 02:49 38.87015 1.36213 8 ft 6 kts 20°
2026-05-08 02:50 38.87041 1.36269 8 ft 9 kts 68°
2026-05-08 02:50 38.87073 1.36347 10 ft 12 kts 61°
2026-05-08 02:50 38.87130 1.36481 8 ft 20 kts 61°
2026-05-08 02:50 38.87198 1.36647 9 ft 22 kts 62°
2026-05-08 02:51 38.87268 1.36825 9 ft 22 kts 63°
2026-05-08 02:51 38.87345 1.36834 9 ft 13 kts 336°
2026-05-08 02:51 38.87432 1.36805 8 ft 13 kts 37°
2026-05-08 02:51 38.87482 1.36911 9 ft 15 kts 62°
2026-05-08 02:52 38.87525 1.37013 9 ft 7 kts 62°
2026-05-08 02:52 38.87545 1.37027 8 ft 2 kts 343°
2026-05-08 02:52 38.87558 1.37016 11 ft 2 kts 326°
2026-05-08 02:52 38.87576 1.37003 8 ft 3 kts 333°
2026-05-08 02:53 38.87589 1.36994 8 ft 0 kts 332°
2026-05-08 02:54 38.87590 1.36993 8 ft 0 kts 332°
2026-05-08 02:54 38.87593 1.36991 8 ft 1 kts 332°
2026-05-08 02:54 38.87598 1.36988 8 ft 1 kts 332°
2026-05-08 02:55 38.87605 1.36983 8 ft 1 kts 332°
2026-05-08 02:55 38.87609 1.36980 10 ft 0 kts 332°
2026-05-08 02:55 38.87601 1.36986 8 ft 2 kts 332°
2026-05-08 02:56 38.87586 1.36996 8 ft 2 kts 332°
2026-05-08 02:56 38.87577 1.37002 10 ft 0 kts 332°
2026-05-08 02:56 38.87579 1.37001 10 ft 1 kts 332°
2026-05-08 02:56 38.87584 1.36997 9 ft 1 kts 332°
2026-05-08 02:57 38.87591 1.36993 8 ft 1 kts 332°
2026-05-08 02:57 38.87592 1.36992 8 ft 0 kts 332°